visible

Flag for Canada Weather past 2 weeks in Edmonton, Alberta, Canada

Now
59 °F

Clear.


Feels Like: 57 °F
Forecast: 54 / 67 °F
Wind: 10 mph from Northwest

Location: Edmonton Municipal

Current Time: Sep 23, 2014 at 4:34:59 AM

Latest Report: Sep 23, 2014 at 4:00 AM


Visibility: 9 mi

Pressure: 29.82 "Hg

Humidity: 72%

Dew point: 50 °F

Location of EdmontonLocation

Historic Weather in Edmonton — Graph

°F

Edmonton temperature yesterday

Maximum temperature yesterday: 84 °F (at 4:00 PM)
Minimum temperature yesterday: 50 °F (at 6:00 AM)
Average temperature yesterday: 67 °F

Past Weeks' High & Low Weather Summary

 TemperatureHumidityPressure
High84 °F (Sep 22, 4:00 PM)100% (Sep 8, 9:00 AM)30.66 "Hg (Sep 8, 9:00 AM)
Low28 °F (Sep 11, 4:00 AM)25% (Sep 22, 4:00 PM)29.55 "Hg (Sep 18, 5:00 AM)
Average52 °F66%30.05 "Hg
* Reported Sep 8 3:00 AM — Sep 23 3:00 AM, Edmonton, Weather by CustomWeather, © 2014

Note: Actual official high and low records may vary slightly from our data, if they occured in-between our weather recording intervals... More about our weather records

Advertising

Edmonton weather history for previous 24 hours

 ConditionsComfort  
Time TempWeatherWind HumidityBarometerVisibility
3:00 AM
Sep 23
61 °FClear.9 mph72%29.78 "Hg9 mi
2:00 AM61 °FClear.5 mph68%29.76 "Hg9 mi
1:00 AM64 °FClear.9 mph64%29.75 "Hg9 mi
12:00 AM64 °FClear.10 mph60%29.73 "Hg9 mi
11:00 PM
Sep 22
66 °FClear.12 mph52%29.73 "Hg9 mi
10:00 PM68 °FClear.No wind46%29.71 "Hg9 mi
9:00 PM68 °FClear.No wind46%29.71 "Hg9 mi
8:00 PM68 °FSunny.3 mph46%29.72 "Hg9 mi
7:00 PM77 °FSunny.2 mph32%29.71 "Hg9 mi
6:00 PM81 °FSunny.6 mph28%29.71 "Hg9 mi
5:00 PM81 °FSunny.7 mph28%29.70 "Hg9 mi
4:00 PM84 °FSunny.6 mph25%29.70 "Hg9 mi
3:00 PM82 °FSunny.6 mph28%29.71 "Hg9 mi
2:00 PM82 °FSunny.8 mph28%29.72 "Hg9 mi
1:00 PM81 °FSunny.9 mph30%29.73 "Hg9 mi
12:00 PM75 °FSunny.8 mph36%29.74 "Hg9 mi
11:00 AM72 °FSunny.8 mph44%29.75 "Hg9 mi
10:00 AM64 °FSunny.5 mph56%29.75 "Hg9 mi
9:00 AM59 °FSunny.3 mph68%29.75 "Hg9 mi
8:00 AM52 °FClear.5 mph82%29.75 "Hg9 mi
7:00 AM50 °FClear.5 mph82%29.75 "Hg9 mi
6:00 AM50 °FClear.2 mph82%29.75 "Hg9 mi
5:00 AM52 °FClear.7 mph82%29.75 "Hg9 mi
4:00 AM54 °FClear.6 mph72%29.73 "Hg9 mi
Weather by CustomWeather, © 2014

See weather overviewHow to use our weather pages